Location: *
(32.3300°N, 34.8500°E)
Time: 12:11:55
(UTC+00:00)

Cosmos 2237 Rocket - Pass Details

Date: 22 October 2019
Orbit: 833 x 851 km, 71.0° (Epoch: 20 November)

Event Time Altitude Azimuth Distance (km) Brightness Sun altitude
Exits shadow 00:51:58 20° 30° (NNE) 1,871 4.3 -38.0°
Drops below altitude 10° 00:53:37 10° 27° (NNE) 2,476 5.0 -37.6°
Sets 00:56:06 0° 24° (NNE) 3,416 5.8 -37.1°
